SCP
0 0 0 0 0 0 0 0 0 0 0 0 0 0 0 0 0 0 0 0 0 0 0 0 0 0 0 0 0 0 0 0 0 0 0 0 0 0
0 0 0 0 0 0 0 0 0 0 0 0 0 0 0 0 0 0 0 0 0 0 0 0 0 0 0 0 0 -0 -0 0 0 0 0 0 0 0
0 0 0 0 0 0 0 0 0 0 0 0 0 0 0 0 0 0 0 0 0 0 0 0 0 0 0 0 0 0 -0 -0 0 0 0 0 0 0
0 0 0 0 0 0 0 0 0 0 0 0 0 0 0 0 0 0 0 0 0 0 0 0 0 0 0 0 0 0 0 -0 -0 0 0 0 0 0
0 0 0 0 0 0 0 0 0 0 0 0 0 0 0 0 0 0 0 0 0 0 0 0 -0 0 0 0 0 0 0 0 0 0 0 0 0 0
0 0 0 0 0 0 0 0 0 0 0 0 0 0 0 0 0 0 0 0 0 0 0 0 0 0 0 0 0 -0 0 -0 0 0 0 0 0 0
0 0 0 0 0 0 0 0 0 0 0 0 0 0 0 0 0 0 0 0 0 0 0 0 0 0 0 0 0 0 -0 -0 -0 -0 0 0 0 0
0 0 0 0 0 0 0 0 0 0 0 0 0 0 0 0 0 0 0 0 0 0 0 0 0 0 0 0 0 0 0 0 0 -0 -0 0 0 0
0 0 0 0 0 0 0 0 0 0 0 0 0 0 0 0 0 0 0 0 0 0 0 0 0 0 0 0 0 0 0 0 0 0 0 0 0 0
0 0 0 0 0 0 0 0 0 0 0 0 0 0 0 0 0 0 0 0 0 0 0 0 0 0 0 0 0 0 0 0 0 0 0 0 0 0
0 0 0 0 0 0 0 0 0 0 0 0 0 0 0 0 0 0 0 0 0 0 0 0 0 0 0 0 0 0 0 0 0 -0 0 0 0 0
0 0 0 0 0 0 0 0 0 0 0 0 0 0 0 0 0 0 0 0 0 0 0 0 0 0 0 0 0 0 0 0 0 0 0 0 -0 -0
0 0 0 0 0 0 0 0 0 0 0 0 0 0 0 0 0 0 0 0 0 0 0 0 0 0 0 0 0 0 0 0 0 0 0 0 -0 0
0 0 0 0 0 -0 0 0 0 0 0 0 0 0 0 0 0 0 0 0 0 0 0 0 0 0 0 0 0 0 0 0 0 0 0 -0 -0 0
0 0 0 0 0 0 0 -0 0 0 0 0 0 0 0 0 0 0 0 0 0 0 0 0 0 0 0 0 0 0 0 0 0 -0 -0 -0 -0 0
0 0 0 -0 -0 -0 0 0 0 0 0 0 0 0 0 0 0 0 0 0 0 0 0 0 0 0 0 0 0 0 0 0 0 0 -0 -0 0 0
0 0 0 0 0 0 0 0 0 0 0 0 0 0 0 0 0 0 0 0 0 0 0 0 0 0 0 0 0 0 0 0 0 0 0 0 -0 0
0 0 0 0 0 0 0 0 0 0 0 0 0 0 0 0 0 0 0 0 0 0 0 0 0 0 0 0 0 0 0 0 0 0 0 0 0 0
0 0 0 0 0 0 0 0 0 0 -0 0 0 0 0 -0 -0 -0 -0 0 0 0 0 -0 0 -0 0 0 0 0 0 0 0 0 0 0 0 0
0 0 0 0 0 0 0 0 0 0 -0 -0 -0 0 0 -0 0 -0 -0 -0 0 0 0 -0 0 -0 0 0 0 0 -0 0 0 0 0 0 0 0
0 0 0 0 0 0 0 0 0 0 0 -0 -0 0 0 -0 -0 -0 -0 -0 -0 -0 0 0 0 -0 0 0 0 0 0 0 0 0 0 0 0 0
0 0 0 0 0 0 0 0 0 0 0 0 0 0 0 -0 -0 -0 -0 -0 -0 -0 -0 0 0 -0 0 -0 -0 -0 0 0 0 -0 -0 -0 0 0
0 0 0 0 0 0 0 0 0 0 0 0 0 0 0 0 -0 0 -0 -0 -0 -0 0 0 0 0 -0 -0 -0 -0 -0 -0 0 0 0 -0 -0 -0
Wind_Speed_500mb
19 18 10 12 15 19 23 26 32 44 45 39 41 39 41 49 50 52 65 61 63 58 62 72 72 77 80 72 65 64 61 64 66 66 60 54 56 54
9 15 10 16 13 18 22 23 26 32 40 40 42 45 51 49 49 58 62 58 55 56 64 70 75 79 60 62 62 66 65 61 61 60 61 63 64 64
9 12 14 18 16 17 18 21 23 28 37 43 40 46 51 55 58 60 55 55 52 55 56 76 72 63 73 77 50 49 52 55 56 55 52 48 51 57
7 9 13 11 14 19 19 24 25 30 34 46 45 47 48 52 60 60 58 51 55 55 68 59 56 64 51 43 50 50 48 52 48 44 41 40 37 34
8 10 13 14 16 18 19 24 26 31 32 37 45 43 47 50 65 59 57 57 53 57 52 51 63 55 39 45 46 50 52 57 66 65 38 34 30 28
8 8 12 16 20 22 21 26 29 32 33 35 40 43 47 54 53 60 72 60 64 53 56 73 57 46 46 53 46 48 59 57 46 34 30 30 30 31
11 12 20 23 22 19 27 32 33 34 34 37 39 45 48 60 62 64 61 68 66 59 78 79 63 48 51 43 53 62 26 32 45 48 39 37 37 34
10 12 18 24 22 22 27 33 38 45 41 42 38 45 48 52 57 57 58 67 81 67 84 81 59 61 51 57 53 34 37 38 52 57 44 43 45 44
12 11 10 19 23 26 24 30 31 38 45 43 41 42 49 52 55 64 59 61 67 64 84 71 74 66 70 63 42 36 41 52 53 41 42 47 46 47
12 13 15 22 27 32 31 27 26 22 30 39 45 46 47 58 65 56 62 64 55 60 69 73 95 91 94 58 27 57 69 50 39 36 38 44 43 47
19 21 21 26 31 33 34 33 31 32 30 40 45 49 56 53 60 63 61 64 71 72 48 91 94 106 99 67 40 76 45 41 42 42 35 33 36 46
16 23 27 30 33 37 39 40 38 41 47 43 43 43 48 47 49 53 54 59 64 77 62 96 102 87 67 53 88 62 63 55 46 30 30 36 41 51
9 13 26 30 31 38 43 43 44 46 40 39 41 42 47 49 48 52 54 53 65 65 62 86 110 94 68 85 88 68 67 60 39 49 46 35 29 32
14 19 27 28 33 42 50 49 49 40 38 42 44 48 52 54 56 55 62 58 57 53 68 74 113 85 73 76 71 84 74 59 56 59 49 37 26 18
27 28 33 43 41 36 46 50 41 42 42 45 48 51 55 54 57 58 64 63 52 52 63 78 115 87 61 65 71 72 83 55 73 62 53 36 31 37
25 27 31 34 35 33 32 35 40 42 44 46 47 50 55 58 59 66 68 69 61 67 62 76 115 88 79 58 54 65 74 63 76 61 47 36 43 43
30 19 22 25 28 31 33 35 39 43 45 46 48 53 57 56 65 67 66 70 71 76 79 76 112 99 75 58 61 68 76 87 85 55 47 43 47 41
23 23 25 26 29 31 34 37 41 46 46 47 49 52 57 60 67 66 66 74 76 77 84 86 112 122 95 77 64 71 80 82 85 50 42 43 49 43
25 24 25 28 29 31 34 38 41 44 44 46 48 53 61 57 62 67 69 76 82 78 81 89 94 118 98 78 65 60 69 75 88 58 32 42 37 49
24 24 24 25 28 31 34 37 39 44 46 46 49 53 65 58 66 68 68 76 82 82 81 95 87 104 92 78 67 66 56 59 83 58 52 37 33 56
22 23 23 25 28 30 33 36 38 43 46 45 49 57 65 59 65 65 69 74 78 81 81 94 83 87 85 75 70 65 53 53 69 65 27 17 32 56
20 20 23 25 27 30 32 35 38 42 45 45 49 60 61 57 62 69 74 73 77 78 82 88 82 89 91 84 72 57 50 49 59 61 57 52 32 38
18 20 21 24 27 29 32 35 38 40 46 45 50 58 63 64 62 68 70 71 74 78 85 90 85 89 90 81 68 56 49 42 43 59 58 49 49 51
Wind_Direction_500mb
312 306 325 323 325 322 317 314 317 318 319 326 325 319 320 319 321 318 316 313 322 333 323 319 321 319 314 309 306 300 293 291 291 288 285 280 275 269
317 316 322 312 332 323 320 324 320 318 315 324 323 326 319 325 320 319 319 330 328 322 317 317 317 315 318 319 308 302 299 299 297 297 293 285 277 271
298 324 342 347 350 336 343 325 331 326 321 317 325 321 330 323 332 320 334 332 326 327 321 315 321 320 320 321 326 326 320 312 308 303 301 293 283 275
4 15 13 9 3 347 353 334 334 331 324 322 325 331 330 335 319 336 334 329 328 327 322 332 320 312 325 345 342 339 324 318 325 322 316 313 301 289
64 46 26 14 1 355 355 340 342 338 335 327 329 332 331 331 326 335 329 336 333 327 337 323 322 340 350 342 336 325 320 322 318 313 298 302 301 295
61 39 17 359 356 357 355 350 344 352 339 337 335 334 334 328 339 333 334 341 333 340 341 337 346 341 341 324 325 306 306 310 319 316 301 297 294 289
74 18 1 358 1 8 9 2 358 355 348 346 342 336 339 339 338 335 335 333 340 340 334 344 340 344 331 329 314 316 301 311 331 322 300 290 288 284
69 54 3 351 7 8 12 6 360 351 349 348 342 336 334 337 333 336 337 338 338 345 334 340 344 331 338 324 330 311 298 303 323 319 302 293 284 280
65 54 31 9 15 17 18 1 352 340 342 351 337 337 334 336 336 334 338 336 333 336 335 337 340 342 335 343 338 346 329 322 316 309 296 293 290 285
80 61 33 24 21 21 18 4 357 337 347 347 348 344 340 348 345 336 341 331 335 336 336 336 345 333 342 348 348 341 330 327 317 305 299 295 286 281
60 46 37 30 25 19 17 11 1 348 6 354 352 350 346 348 345 342 340 341 338 342 338 337 338 338 341 349 338 337 345 336 329 319 313 307 294 286
38 22 33 31 23 20 19 13 10 14 15 357 356 353 349 347 344 344 343 341 340 336 335 335 343 346 335 338 343 352 349 349 334 336 335 310 291 288
71 29 28 25 22 23 24 18 25 22 5 360 358 355 353 349 350 347 349 347 338 334 327 338 347 345 336 326 338 352 351 349 354 346 337 331 311 292
70 40 28 22 29 24 21 20 19 16 9 4 1 357 355 350 352 351 355 348 345 333 333 336 344 347 338 338 336 351 356 358 359 351 347 346 338 321
55 42 36 30 29 13 10 13 11 13 11 6 1 357 352 347 352 357 356 350 354 353 337 335 345 351 352 346 339 353 357 1 358 355 356 358 347 334
47 23 29 27 21 17 15 12 10 12 11 3 358 354 350 355 354 1 355 352 354 350 353 336 346 358 1 358 353 359 6 349 1 359 2 10 355 344
63 42 34 28 22 18 15 12 10 11 8 3 359 356 354 358 356 1 357 353 353 349 350 346 350 3 7 8 6 7 5 4 3 1 11 20 353 357
59 46 36 28 23 17 13 11 10 8 6 0 360 358 355 1 357 358 358 356 351 351 351 350 349 359 5 16 18 7 7 5 0 14 25 24 8 18
55 44 36 27 21 15 11 11 7 4 4 1 360 358 357 3 359 358 356 355 351 352 353 352 349 358 358 352 5 24 6 5 359 22 35 32 32 37
49 42 34 25 19 15 12 9 7 2 4 359 359 357 360 1 359 357 356 355 352 350 352 353 353 351 3 355 347 9 26 4 3 33 51 37 53 76
45 35 29 23 17 14 11 8 8 1 360 358 357 355 1 2 359 355 353 357 354 352 352 352 352 341 2 9 6 12 25 28 10 20 43 58 49 69
43 34 26 21 15 12 10 7 4 0 359 358 355 355 3 4 357 352 355 353 353 352 349 352 354 343 5 10 7 12 24 35 20 24 44 54 75 65
37 33 25 20 15 10 9 7 2 359 357 356 352 357 9 3 356 350 355 352 353 352 352 351 355 347 5 11 10 15 22 35 45 33 55 62 65 82
Wind_Speed_850mb
19 18 10 12 15 19 23 26 32 44 45 39 41 39 41 49 50 52 65 61 63 58 62 72 72 77 80 72 65 64 61 64 66 66 60 54 56 54
9 15 10 16 13 18 22 23 26 32 40 40 42 45 51 49 49 58 62 58 55 56 64 70 75 79 60 62 62 66 65 61 61 60 61 63 64 64
9 12 14 18 16 17 18 21 23 28 37 43 40 46 51 55 58 60 55 55 52 55 56 76 72 63 73 77 50 49 52 55 56 55 52 48 51 57
7 9 13 11 14 19 19 24 25 30 34 46 45 47 48 52 60 60 58 51 55 55 68 59 56 64 51 43 50 50 48 52 48 44 41 40 37 34
8 10 13 14 16 18 19 24 26 31 32 37 45 43 47 50 65 59 57 57 53 57 52 51 63 55 39 45 46 50 52 57 66 65 38 34 30 28
8 8 12 16 20 22 21 26 29 32 33 35 40 43 47 54 53 60 72 60 64 53 56 73 57 46 46 53 46 48 59 57 46 34 30 30 30 31
11 12 20 23 22 19 27 32 33 34 34 37 39 45 48 60 62 64 61 68 66 59 78 79 63 48 51 43 53 62 26 32 45 48 39 37 37 34
10 12 18 24 22 22 27 33 38 45 41 42 38 45 48 52 57 57 58 67 81 67 84 81 59 61 51 57 53 34 37 38 52 57 44 43 45 44
12 11 10 19 23 26 24 30 31 38 45 43 41 42 49 52 55 64 59 61 67 64 84 71 74 66 70 63 42 36 41 52 53 41 42 47 46 47
12 13 15 22 27 32 31 27 26 22 30 39 45 46 47 58 65 56 62 64 55 60 69 73 95 91 94 58 27 57 69 50 39 36 38 44 43 47
19 21 21 26 31 33 34 33 31 32 30 40 45 49 56 53 60 63 61 64 71 72 48 91 94 106 99 67 40 76 45 41 42 42 35 33 36 46
16 23 27 30 33 37 39 40 38 41 47 43 43 43 48 47 49 53 54 59 64 77 62 96 102 87 67 53 88 62 63 55 46 30 30 36 41 51
9 13 26 30 31 38 43 43 44 46 40 39 41 42 47 49 48 52 54 53 65 65 62 86 110 94 68 85 88 68 67 60 39 49 46 35 29 32
14 19 27 28 33 42 50 49 49 40 38 42 44 48 52 54 56 55 62 58 57 53 68 74 113 85 73 76 71 84 74 59 56 59 49 37 26 18
27 28 33 43 41 36 46 50 41 42 42 45 48 51 55 54 57 58 64 63 52 52 63 78 115 87 61 65 71 72 83 55 73 62 53 36 31 37
25 27 31 34 35 33 32 35 40 42 44 46 47 50 55 58 59 66 68 69 61 67 62 76 115 88 79 58 54 65 74 63 76 61 47 36 43 43
30 19 22 25 28 31 33 35 39 43 45 46 48 53 57 56 65 67 66 70 71 76 79 76 112 99 75 58 61 68 76 87 85 55 47 43 47 41
23 23 25 26 29 31 34 37 41 46 46 47 49 52 57 60 67 66 66 74 76 77 84 86 112 122 95 77 64 71 80 82 85 50 42 43 49 43
25 24 25 28 29 31 34 38 41 44 44 46 48 53 61 57 62 67 69 76 82 78 81 89 94 118 98 78 65 60 69 75 88 58 32 42 37 49
24 24 24 25 28 31 34 37 39 44 46 46 49 53 65 58 66 68 68 76 82 82 81 95 87 104 92 78 67 66 56 59 83 58 52 37 33 56
22 23 23 25 28 30 33 36 38 43 46 45 49 57 65 59 65 65 69 74 78 81 81 94 83 87 85 75 70 65 53 53 69 65 27 17 32 56
20 20 23 25 27 30 32 35 38 42 45 45 49 60 61 57 62 69 74 73 77 78 82 88 82 89 91 84 72 57 50 49 59 61 57 52 32 38
18 20 21 24 27 29 32 35 38 40 46 45 50 58 63 64 62 68 70 71 74 78 85 90 85 89 90 81 68 56 49 42 43 59 58 49 49 51
Wind_Direction_850mb
312 306 325 323 325 322 317 314 317 318 319 326 325 319 320 319 321 318 316 313 322 333 323 319 321 319 314 309 306 300 293 291 291 288 285 280 275 269
317 316 322 312 332 323 320 324 320 318 315 324 323 326 319 325 320 319 319 330 328 322 317 317 317 315 318 319 308 302 299 299 297 297 293 285 277 271
298 324 342 347 350 336 343 325 331 326 321 317 325 321 330 323 332 320 334 332 326 327 321 315 321 320 320 321 326 326 320 312 308 303 301 293 283 275
4 15 13 9 3 347 353 334 334 331 324 322 325 331 330 335 319 336 334 329 328 327 322 332 320 312 325 345 342 339 324 318 325 322 316 313 301 289
64 46 26 14 1 355 355 340 342 338 335 327 329 332 331 331 326 335 329 336 333 327 337 323 322 340 350 342 336 325 320 322 318 313 298 302 301 295
61 39 17 359 356 357 355 350 344 352 339 337 335 334 334 328 339 333 334 341 333 340 341 337 346 341 341 324 325 306 306 310 319 316 301 297 294 289
74 18 1 358 1 8 9 2 358 355 348 346 342 336 339 339 338 335 335 333 340 340 334 344 340 344 331 329 314 316 301 311 331 322 300 290 288 284
69 54 3 351 7 8 12 6 360 351 349 348 342 336 334 337 333 336 337 338 338 345 334 340 344 331 338 324 330 311 298 303 323 319 302 293 284 280
65 54 31 9 15 17 18 1 352 340 342 351 337 337 334 336 336 334 338 336 333 336 335 337 340 342 335 343 338 346 329 322 316 309 296 293 290 285
80 61 33 24 21 21 18 4 357 337 347 347 348 344 340 348 345 336 341 331 335 336 336 336 345 333 342 348 348 341 330 327 317 305 299 295 286 281
60 46 37 30 25 19 17 11 1 348 6 354 352 350 346 348 345 342 340 341 338 342 338 337 338 338 341 349 338 337 345 336 329 319 313 307 294 286
38 22 33 31 23 20 19 13 10 14 15 357 356 353 349 347 344 344 343 341 340 336 335 335 343 346 335 338 343 352 349 349 334 336 335 310 291 288
71 29 28 25 22 23 24 18 25 22 5 360 358 355 353 349 350 347 349 347 338 334 327 338 347 345 336 326 338 352 351 349 354 346 337 331 311 292
70 40 28 22 29 24 21 20 19 16 9 4 1 357 355 350 352 351 355 348 345 333 333 336 344 347 338 338 336 351 356 358 359 351 347 346 338 321
55 42 36 30 29 13 10 13 11 13 11 6 1 357 352 347 352 357 356 350 354 353 337 335 345 351 352 346 339 353 357 1 358 355 356 358 347 334
47 23 29 27 21 17 15 12 10 12 11 3 358 354 350 355 354 1 355 352 354 350 353 336 346 358 1 358 353 359 6 349 1 359 2 10 355 344
63 42 34 28 22 18 15 12 10 11 8 3 359 356 354 358 356 1 357 353 353 349 350 346 350 3 7 8 6 7 5 4 3 1 11 20 353 357
59 46 36 28 23 17 13 11 10 8 6 0 360 358 355 1 357 358 358 356 351 351 351 350 349 359 5 16 18 7 7 5 0 14 25 24 8 18
55 44 36 27 21 15 11 11 7 4 4 1 360 358 357 3 359 358 356 355 351 352 353 352 349 358 358 352 5 24 6 5 359 22 35 32 32 37
49 42 34 25 19 15 12 9 7 2 4 359 359 357 360 1 359 357 356 355 352 350 352 353 353 351 3 355 347 9 26 4 3 33 51 37 53 76
45 35 29 23 17 14 11 8 8 1 360 358 357 355 1 2 359 355 353 357 354 352 352 352 352 341 2 9 6 12 25 28 10 20 43 58 49 69
43 34 26 21 15 12 10 7 4 0 359 358 355 355 3 4 357 352 355 353 353 352 349 352 354 343 5 10 7 12 24 35 20 24 44 54 75 65
37 33 25 20 15 10 9 7 2 359 357 356 352 357 9 3 356 350 355 352 353 352 352 351 355 347 5 11 10 15 22 35 45 33 55 62 65 82